Regional Weather Roundup
Issued by NWS

Home | Current Version | Previous Version | Text Only | Print | Product List | Glossary Off
Versions: 1 2 3 4 5 6 7 8 9 10 11 12 13 14 15 16 17 18 19 20 21 22 23 24 25 26 27 28 29 30 31 32 33 34 35 36 37 38 39 40 41 42 43 44 45 46 47 48 49 50

000
ASUS43 KOAX 221902
RWRNE

WEATHER ROUNDUP FOR NEBRASKA
NATIONAL WEATHER SERVICE OMAHA NE
200 PM CDT TUE JUL 22 2014

NOTES: SATELLITE DATA IS BEING USED TO AUGMENT CLOUD COVER ABOVE
       12000 FEET.
       "FAIR" INDICATES FEW OR NO CLOUDS BELOW 12,000 FEET WITH NO
       SIGNIFICANT WEATHER AND/OR OBSTRUCTIONS TO VISIBILITY.

  * THESE STATIONS DO NOT REPORT WEATHER SUCH AS RAIN...SNOW OR FOG.

NEZ001>004-019>022-054>056-222000-
NEBRASKA PANHANDLE

CITY           SKY/WX    TMP DP  RH WIND       PRES   REMARKS
SCOTTSBLUFF    SUNNY     88  57  34 E13       30.25F
ALLIANCE       SUNNY     91  50  24 SE16G24   30.25F
CHADRON        SUNNY     88  59  37 NE13      30.22F
KIMBALL        SUNNY     87  50  28 S12       30.30S
SIDNEY         SUNNY     92  53  26 SE10G18   30.28S
$$

NEZ057>060-069>072-079>082-222000-
SOUTHWEST NEBRASKA

CITY           SKY/WX    TMP DP  RH WIND       PRES   REMARKS
NORTH PLATTE   SUNNY     90  61  37 E8G17     30.17S HX  90
IMPERIAL       SUNNY     91  59  33 E9G18     30.19S HX  90
LEXINGTON      SUNNY     90  63  40 NE12      30.15R HX  90
MCCOOK         SUNNY     91  64  40 E10       30.13F HX  92
OGALLALA       SUNNY     87  59  38 E9        30.22R
$$

NEZ005>010-023>029-035>040-094-222000-
NORTH CENTRAL NEBRASKA

CITY           SKY/WX    TMP DP  RH WIND       PRES   REMARKS
VALENTINE      MOSUNNY   82  62  50 MISG      30.22F
AINSWORTH      MOSUNNY   79  61  53 N10       30.23R
BROKEN BOW     SUNNY     88  64  44 VRB6      30.17S
O`NEILL        MOSUNNY   84  62  47 N12       30.19R
ORD            SUNNY     87  64  46 N7        30.14
THEDFORD       SUNNY     90  58  34 NE7       30.21S
$$

NEZ041-046>049-061>064-073>077-083>087-222000-
SOUTH CENTRAL NEBRASKA

CITY           SKY/WX    TMP DP  RH WIND       PRES   REMARKS
GRAND ISLAND   SUNNY     87  69  54 NE13      30.13R HX  91
AURORA         SUNNY     87  69  55 NE8       30.10S HX  91
HASTINGS       SUNNY     89  66  46 NE13      30.11R HX  91
HEBRON         PTSUNNY   92  72  50 N9        30.06R HX  99
HOLDREGE       SUNNY     89  65  44 E10       30.13S HX  90
KEARNEY *      SUNNY     90  64  43 NE15      30.14R HX  91
YORK           SUNNY     86  72  62 N16       30.09S HX  92
$$

NEZ011>018-030>034-042>045-222000-
NORTHEAST NEBRASKA

CITY           SKY/WX    TMP DP  RH WIND       PRES   REMARKS
NORFOLK        SUNNY     87  66  49 N15       30.12R
ALBION         SUNNY     85  63  48 N9G18     30.13R
BLAIR          MOSUNNY   87  61  41 N13       30.05F
COLUMBUS *     MOSUNNY   88  66  48 N12       30.09S HX  90
FREMONT        MOSUNNY   88  68  51 N7        30.06S HX  91
TEKAMAH        MOSUNNY   88  69  53 N12       30.04F HX  92
WAYNE          MOSUNNY   84  71  66 N12G18    30.12R
$$

NEZ050>053-065>068-078-088>093-222000-
SOUTHEAST NEBRASKA

CITY           SKY/WX    TMP DP  RH WIND       PRES   REMARKS
LINCOLN        MOSUNNY   95  73  48 N17       30.05S HX 104
OMAHA EPPLEY   MOSUNNY   90  68  48 N17       30.04R HX  94
BEATRICE       PTSUNNY   89  74  62 N9        30.04R HX  98
FALLS CITY     PTSUNNY   96  74  48 S9        29.99F HX 107
NEBRASKA CITY  MOSUNNY   90  74  59 N6        30.03R HX 100
PLATTSMOUTH    MOSUNNY   93  71  49 N9        30.03F HX 100
$$

NEZ044-045-051>053-067-222000-
OMAHA AREA

CITY           SKY/WX    TMP DP  RH WIND       PRES   REMARKS
OMAHA EPPLEY   MOSUNNY   90  68  48 N17       30.04R HX  94
BLAIR          MOSUNNY   87  61  41 N13       30.05F
FREMONT        MOSUNNY   88  68  51 N7        30.06S HX  91
MILLARD        MOSUNNY   89  71  56 N6        30.03S HX  95
OFFUTT AFB     MOSUNNY   91  75  60 N15       30.03R HX 102
PLATTSMOUTH    MOSUNNY   93  71  49 N9        30.03F HX 100
WAHOO          FAIR      89  69  51 N10       30.05F HX  93
$$


USA.gov is the U.S. government's official web portal to all federal, state and local government web resources and services.